This is the latest recevied weather packets stored in our database for station/object BV3BA-13. If no packets are shown the sender has not sent any weather packets the latest 1 day(s).
| Time | Temp. | Humidity | Pressure | Rain* | Wind** | Luminosity | Snow |
|---|---|---|---|---|---|---|---|
| 1777995424 | 20.56° C | 98% | 1011 hPa | 0 mm | 0.89 m/s, 120° | - | - |
| 1777994824 | 20.56° C | 98% | 1011.3 hPa | 0.51 mm | 0.45 m/s, 130° | - | - |
| 1777994224 | 20.56° C | 98% | 1011.4 hPa | 0.51 mm | 0.89 m/s, 170° | - | - |
| 1777993623 | 20.56° C | 98% | 1011.6 hPa | 0.51 mm | 0.45 m/s, 160° | - | - |
| 1777993025 | 20.56° C | 98% | 1011.4 hPa | 0.51 mm | 0.89 m/s, 180° | - | - |
| 1777992423 | 20.56° C | 98% | 1011.3 hPa | 0.51 mm | 0.45 m/s, 160° | - | - |
| 1777991824 | 20.56° C | 98% | 1011.1 hPa | 0.51 mm | 0 m/s | - | - |
| 1777991224 | 20.56° C | 96% | 1010.9 hPa | 0 mm | 0.45 m/s, 100° | - | - |
| 1777990624 | 20.56° C | 97% | 1010.8 hPa | 0.51 mm | 0.45 m/s, 50° | - | - |
| 1777990023 | 20.56° C | 97% | 1010.7 hPa | 0.51 mm | 0.89 m/s, 40° | - | - |
| 1777989424 | 20.56° C | 97% | 1010.5 hPa | 1.02 mm | 0.89 m/s, 100° | - | - |
| 1777988824 | 20.56° C | 97% | 1010.5 hPa | 1.52 mm | 0.89 m/s, 90° | - | - |
| 1777988224 | 20.56° C | 97% | 1010.8 hPa | 1.52 mm | 0.89 m/s, 100° | - | - |
| 1777987625 | 20.56° C | 98% | 1010.9 hPa | 2.03 mm | 0.45 m/s, 110° | - | - |
| 1777987023 | 20.56° C | 97% | 1011.1 hPa | 2.54 mm | 0.45 m/s, 120° | - | - |
| 1777986424 | 20.56° C | 98% | 1011 hPa | 3.05 mm | 0.45 m/s, 80° | - | - |
| 1777985824 | 20.56° C | 97% | 1011.1 hPa | 4.06 mm | 0.45 m/s, 110° | - | - |
| 1777985224 | 20.56° C | 98% | 1011 hPa | 4.06 mm | 0.89 m/s, 100° | - | - |
| 1777984623 | 20.56° C | 98% | 1010.9 hPa | 4.57 mm | 0.89 m/s, 120° | - | - |
| 1777984023 | 21.11° C | 98% | 1010.9 hPa | 5.08 mm | 0.89 m/s, 130° | - | - |
| 1777983423 | 21.11° C | 98% | 1011.2 hPa | 6.1 mm | 0.45 m/s, 160° | - | - |
| 1777982824 | 21.11° C | 98% | 1011.1 hPa | 5.59 mm | 0.89 m/s, 170° | - | - |
| 1777982223 | 21.11° C | 98% | 1010.9 hPa | 4.06 mm | 0 m/s | - | - |
| 1777981623 | 21.11° C | 98% | 1010.7 hPa | 3.56 mm | 0 m/s | - | - |
| 1777981023 | 21.11° C | 98% | 1010.6 hPa | 3.05 mm | 0 m/s | - | - |
* Rain latest hour (hover to see other rain measurements)
** Current wind speed in m/s (hover to see current wind gust speed)